Regional Weather Roundup
Issued by NWS

Home | Current Version | Previous Version | Graphics & Text | Print | Product List | Glossary Off
Versions: 1 2 3 4 5 6 7 8 9 10 11 12 13 14 15 16 17 18 19 20 21 22 23 24 25 26 27 28 29 30 31 32 33 34 35 36 37 38 39 40 41 42 43 44 45 46 47 48 49 50

000
ASUS43 KTOP 242059
RWRKS

WEATHER ROUNDUP FOR KANSAS
NATIONAL WEATHER SERVICE GOODLAND KS
400 PM CDT THU JUL 24 2014

NOTE:  "FAIR" INDICATES FEW OR NO CLOUDS BELOW 12,000 FEET WITH NO
SIGNIFICANT WEATHER AND/OR OBSTRUCTIONS TO VISIBILITY.

KSZ001>006-013>018-027>032-041>047-242200-
NORTHWEST KANSAS

CITY           SKY/WX    TMP DP  RH WIND       PRES   REMARKS
GOODLAND       SUNNY    100  45  15 S17G29    29.94F HX  96
HAYS           SUNNY     75  70  83 S25       29.94F
HILL CITY      SUNNY     99  66  33 S18G28    29.90F HX 103
RUSSELL        SUNNY     92  70  48 S25G31    29.94F HX  97
$$

KSZ061>065-074>080-084>089-242200-
SOUTHWEST KANSAS

CITY           SKY/WX    TMP DP  RH WIND       PRES   REMARKS
DODGE CITY     SUNNY     94  69  44 SE22G29   29.99F HX  99
ELKHART          N/A     97  53  22 SW16        N/A
GARDEN CITY    SUNNY     97  56  25 S21G31    29.97F HX  95
GREAT BEND     MOSUNNY   93  72  49 S21G28    29.95F HX 100
LIBERAL        SUNNY    100  54  20 S20G29    30.02F HX  98
$$

KSZ066>073-081>083-090>101-242200-
SOUTHEAST KANSAS

CITY           SKY/WX    TMP DP  RH WIND       PRES   REMARKS
CHANUTE        SUNNY     85  65  51 SE8       30.05F
COFFEYVILLE    SUNNY     88  66  48 SE9       30.03F
HUTCHINSON     SUNNY     94  67  41 S20G25    30.00F HX  97
MEDICINE LODGE   N/A     93  71  48 SE12      29.98F HX 100
NEWTON         SUNNY     90  64  43 S18       30.06F
PARSONS        SUNNY     87  67  51 VRB6      30.05F
WICHITA INTL   MOSUNNY   89  69  51 SE16      30.01F
WICHITA JABRA  SUNNY     90  69  50 S17       30.02F
WINFIELD       SUNNY     89  71  55 S10G18    30.03F HX  95
$$

KSZ007>012-019>026-033>040-048>060-102>105-242200-
NORTHEAST KANSAS

CITY           SKY/WX    TMP DP  RH WIND       PRES   REMARKS
CONCORDIA      SUNNY     88  67  49 SE21G31   29.97F
EMPORIA        SUNNY     86  64  47 SE10      30.03F
LAWRENCE       SUNNY     86  59  39 SE12      30.03F
MANHATTAN      SUNNY     92  63  38 SE15G25   29.98F
OLATHE IND     SUNNY     83  58  42 SE13G20   30.06F
OLATHE EXE     SUNNY     82  57  42 SE14      30.05F
SALINA         SUNNY     95  66  38 SE25G31   29.97F HX  98
TOPEKA BILLARD SUNNY     88  60  38 SE16      30.02F
TOPEKA FORBES  SUNNY     88  61  40 SE14      30.02F
$$



USA.gov is the U.S. government's official web portal to all federal, state and local government web resources and services.